Regional Weather Roundup
Issued by NWS Upton, NY

Current Version | Previous Version | Graphics & Text | Print | Product List | Glossary Off
Versions: 1 2 3 4 5 6 7 8 9 10 11 12 13 14 15 16 17 18 19 20 21 22 23 24 25 26 27 28 29 30 31 32 33 34 35 36 37 38 39 40 41 42 43 44 45 46 47 48 49 50
000 ASUS41 KOKX 280605 RWROKX Regional Weather Roundup National Weather Service New York NY 200 AM EDT MON MAY 28 2018 Note: "FAIR" indicates few or no clouds below 12,000 feet with no significant weather and/or obstructions to visibility. NYZ071-072-176-178-NJZ106-104-280700- New York City Metro Area CITY SKY/WX TMP DP RH WIND PRES REMARKS Central Park CLOUDY 56 51 84 MISG 30.12F Bronx Bot Gard N/A 55 50 82 E1 30.10S Bronx Lehman C N/A 55 50 82 E8 N/A LaGuardia Arpt CLOUDY 56 50 80 NE13 30.09F Queens College N/A 54 50 87 NE7 N/A Kennedy Intl CLOUDY 55 53 93 NE8 30.10F Breezy Point N/A 54 N/A N/A NE7 N/A Brooklyn Coll N/A 55 50 82 N6 N/A Staten Island N/A 55 52 88 NE5 N/A Newark/Liberty CLOUDY 57 52 83 NE9 30.09F Teterboro CLOUDY 57 51 80 E7 30.09F $$ NYZ177-179-078>081-280700- Long Island New York CITY SKY/WX TMP DP RH WIND PRES REMARKS Jones Beach N/A 54 N/A N/A NE12 N/A Wantagh N/A 54 52 94 NE3 N/A Hempstead N/A 54 50 87 N3 30.12S Matinecock Pt N/A 54 N/A N/A NE13 N/A Farmingdale CLOUDY 53 51 93 NE9 30.08F MacArthur/ISP CLOUDY 54 52 93 NE12 30.08F Stony Brook N/A 52 52 100 NE2 N/A Shirley CLOUDY 53 53 100 N7 30.08F Mt Sinai Harb N/A N/A N/A N/A NE8 N/A Westhampton CLOUDY 54 50 86 NE12 30.09F East Hampton CLOUDY 51 50 96 NE6 30.07F Southold N/A 52 52 100 NE6 N/A Montauk N/A 53 52 96 NE6 30.08F $$ NYZ052-065-067-280700- Hudson Valley CITY SKY/WX TMP DP RH WIND PRES REMARKS White Plains CLOUDY 53 50 89 N6 30.09F Larchmont Harb N/A 54 N/A N/A N7 N/A Croton On Huds N/A 54 N/A N/A SE1 N/A Somers N/A 52 50 93 NE2 N/A Brewster N/A 50 48 93 E2 N/A Newburgh CLOUDY 52 52 100 NE5 30.12S Montgomery LGT RAIN 53 51 93 N6 30.10F FOG Otisville N/A 52 52 100 E3 N/A Warwick N/A 54 54 100 NE3 N/A Suffern N/A 54 50 87 N2 N/A Poughkeepsie CLOUDY 54 48 80 E5 30.10F Albany CLOUDY 53 48 83 S10 30.11S $$ NJZ001-105-106-008-010-013-015-019>022-104-280700- New Jersey CITY SKY/WX TMP DP RH WIND PRES REMARKS Newark/Liberty CLOUDY 57 52 83 NE9 30.09F Teterboro CLOUDY 57 51 80 E7 30.09F Caldwell CLOUDY 56 52 86 E7 30.10F Somerville CLOUDY 57 54 89 E3 30.08S Linden CLOUDY 56 51 81 CALM 30.09F Perth Amboy N/A 55 N/A N/A NE7 N/A Sussex CLOUDY 54 53 97 NE5 30.10S Andover N/A 55 53 93 CALM 30.10S Trenton CLOUDY 57 54 89 NE5 30.09S Millville LGT RAIN 56 55 97 NE7 30.06F Atlantic City CLOUDY 57 56 96 NE7 30.06F Wrightstown CLOUDY 55 54 96 NE7 30.05 Toms River CLOUDY 55 54 96 NE8 30.08F Belmar CLOUDY 55 54 96 NE5 30.10S $$ PAZ047>061-062-071-280700- Eastern Pennsylvania CITY SKY/WX TMP DP RH WIND PRES REMARKS Philadelphia CLOUDY 57 55 93 E10 30.08F Allentown CLOUDY 59 55 87 E6 30.09S FOG Scranton CLOUDY 58 55 90 E5 30.06F $$ CTZ002-004>006-009-010-012-RIZ004-006-007-MAZ004-011-015-280700- Southern New England In CT CITY SKY/WX TMP DP RH WIND PRES REMARKS Bradley Intl CLOUDY 50 49 96 N7 30.12F Hartford CLOUDY 51 50 96 N8 30.11F Danbury CLOUDY 51 49 92 E5 30.11F Wtrbury/Oxford CLOUDY 49 48 97 NE5 30.10F Norwalk Harbor N/A 52 N/A N/A N8 N/A Bridgeport CLOUDY 54 49 83 NE9 30.09F Meriden CLOUDY 51 48 89 N7 30.11F New Haven CLOUDY 54 50 86 N7 30.09F Chester CLOUDY 52 52 100 N7 30.08F FOG Groton CLOUDY 53 52 96 N7 30.07F Willimantic CLOUDY 52 49 89 NE7 30.10F In RI CITY SKY/WX TMP DP RH WIND PRES REMARKS Providence CLOUDY 51 49 92 NE12 30.10F Block Island CLOUDY 52 51 97 NE12G18 30.07F Westerly CLOUDY 53 52 96 VRB6G17 30.08F In MA CITY SKY/WX TMP DP RH WIND PRES REMARKS Boston CLOUDY 51 49 92 NE13 30.13 FOG Worcester FOG 46 46 100 NE9G20 30.11F VSB 1/4 Westfield CLOUDY 50 49 96 N7 30.12F Provincetown CLOUDY 50 49 96 NE12 30.11F Nantucket LGT RAIN 50 50 100 NE15 30.03F FOG $$ ANZ330-335-338-340-345-350-353-355-280700- Coastal Marine Observations STATION/POSITION TIME SKY/WX TEMP WIND PRES VSBY WAVE AIR SEA DIR/SP/G HT/PER (UTC) (F) (DEG/KT/KT) (MB) (MI) (FT/S) NY Harb Entrance 0550 54 55 40/ 10/ 14 1018.6 4/ 7 20 S Fire Island 0550 53 54 50/ 16/ 19 1017.9 6/ 7 23 SSW Montauk P 0550 53 54 30/ 17/ 21 1017.7 6/ 7 15 E Barnegat Li 0530 57 N/A 6/ 8 Hudson Canyon 0550 54 55 40/ 12/ 16 1016.8 5/ 6 Kings Point 0542 55 58 100/ 2/ 4 1020.1 Execution Rocks NOT AVBL Western LI Sound 0520 55 60/ 10/ 14 N/A 1/ 5 Central LI Sound 0545 53 30/ 10/ 12 N/A 1 Robbins Reef 0536 56 40/ 12/ 12 1019.6 $$ >>>>>>>>>>>>>>>>>>>>>>>>>>>> KEY <<<<<<<<<<<<<<<<<<<<<<<<<<< > < > SKY/WX - Sky Condition/Present Weather < > TMP - Temperature in Fahrenheit < > DP - Dew Point in Fahrenheit < > RH - Relative Humidity in Percent < > WIND - Direction (from) and Speed in MPH < > PRES - Mean Sea Level Pressure (inches of Hg) < > WCI - Wind Chill Index < > VSB - Visibility in Miles < > HX - Heat Index < > TC - Temperature in Celsius < > VRB - Varibale Wind Direction < > < >>>>>>>>>>>>>>>>>>>>>>>>>>>> KEY <<<<<<<<<<<<<<<<<<<<<<<<<<<

USA.gov is the U.S. government's official web portal to all federal, state and local government web resources and services.